• In Russia
  • List of Countries
  • For 7 days
  • Water Temperature
  • Weather Map
  • Weather Widgets
  • user-avatar
    Login

    Hourly Weather Tibissa

    Today, 29 May, Friday

    Time Temperature Precipitation Wind Pressure Humidity
    00:00 +19°C° 0 mm 4 mps 688 mmHg 47%
    01:00 +18°C° 0 mm 4 mps 687 mmHg 48%
    02:00 +18°C° 0 mm 4 mps 687 mmHg 50%
    03:00 +17°C° 0 mm 4 mps 687 mmHg 52%
    04:00 +17°C° 0 mm 4 mps 687 mmHg 53%
    05:00 +17°C° 0 mm 4 mps 687 mmHg 52%
    06:00 +18°C° 0 mm 4 mps 686 mmHg 51%
    07:00 +18°C° 0 mm 4 mps 686 mmHg 49%
    08:00 +20°C° 0 mm 6 mps 687 mmHg 46%
    09:00 +21°C° 0 mm 7 mps 687 mmHg 42%
    10:00 +23°C° 0 mm 8 mps 687 mmHg 39%
    11:00 +24°C° 0 mm 8 mps 687 mmHg 38%
    12:00 +24°C° 0 mm 7 mps 686 mmHg 38%
    13:00 +26°C° 0 mm 7 mps 686 mmHg 37%
    14:00 +23°C° 0.8 mm 7 mps 686 mmHg 43%
    15:00 +22°C° 0.8 mm 6 mps 685 mmHg 49%
    16:00 +21°C° 0.8 mm 5 mps 684 mmHg 55%
    17:00 +20°C° 1.9 mm 5 mps 684 mmHg 60%
    18:00 +19°C° 1.9 mm 5 mps 684 mmHg 66%
    19:00 +19°C° 1.9 mm 5 mps 683 mmHg 72%
    20:00 +19°C° 0.9 mm 4 mps 684 mmHg 71%
    21:00 +18°C° 0.9 mm 3 mps 684 mmHg 69%
    22:00 +19°C° 0.9 mm 1 mps 684 mmHg 68%
    23:00 +18°C° 0.2 mm 2 mps 684 mmHg 67%

    Tomorrow, 30 May, Saturday

    Time Temperature Precipitation Wind Pressure Humidity
    00:00 +18°C° 0.2 mm 3 mps 684 mmHg 66%
    01:00 +19°C° 0.2 mm 3 mps 684 mmHg 65%
    02:00 +18°C° 0.1 mm 3 mps 683 mmHg 66%
    03:00 +18°C° 0.1 mm 2 mps 683 mmHg 67%
    04:00 +17°C° 0.1 mm 2 mps 683 mmHg 68%
    05:00 +18°C° 0.5 mm 2 mps 683 mmHg 67%
    06:00 +18°C° 0.5 mm 2 mps 683 mmHg 66%
    07:00 +20°C° 0.5 mm 1 mps 683 mmHg 65%
    08:00 +20°C° 0.1 mm 2 mps 684 mmHg 60%
    09:00 +21°C° 0.1 mm 2 mps 684 mmHg 56%
    10:00 +22°C° 0.1 mm 3 mps 684 mmHg 51%
    11:00 +24°C° 0.6 mm 3 mps 684 mmHg 50%
    12:00 +24°C° 0.6 mm 3 mps 684 mmHg 49%
    13:00 +25°C° 0.6 mm 3 mps 684 mmHg 48%
    14:00 +25°C° 0.8 mm 4 mps 684 mmHg 47%
    15:00 +25°C° 0.8 mm 4 mps 684 mmHg 47%
    16:00 +25°C° 0.8 mm 4 mps 684 mmHg 47%
    17:00 +23°C° 0.3 mm 5 mps 684 mmHg 46%
    18:00 +23°C° 0.3 mm 5 mps 684 mmHg 46%
    19:00 +22°C° 0.3 mm 6 mps 684 mmHg 45%
    20:00 +21°C° 0 mm 5 mps 684 mmHg 51%
    21:00 +20°C° 0 mm 4 mps 684 mmHg 57%
    22:00 +18°C° 0 mm 4 mps 684 mmHg 62%
    23:00 +18°C° 0 mm 3 mps 684 mmHg 65%

    Day after tomorrow, 31 May, Sunday

    Time Temperature Precipitation Wind Pressure Humidity
    00:00 +17°C° 0 mm 2 mps 684 mmHg 67%
    01:00 +18°C° 0 mm 1 mps 684 mmHg 70%
    02:00 +16°C° 0 mm 1 mps 684 mmHg 71%
    03:00 +16°C° 0 mm 1 mps 684 mmHg 73%
    04:00 +15°C° 0 mm 1 mps 684 mmHg 74%
    05:00 +16°C° 0 mm 1 mps 684 mmHg 70%
    06:00 +16°C° 0 mm 1 mps 684 mmHg 66%
    07:00 +16°C° 0 mm 1 mps 684 mmHg 62%
    08:00 +19°C° 0 mm 1 mps 685 mmHg 55%
    09:00 +20°C° 0 mm 1 mps 685 mmHg 48%
    10:00 +22°C° 0 mm 1 mps 686 mmHg 41%
    11:00 +23°C° 0 mm 2 mps 686 mmHg 37%
    12:00 +25°C° 0 mm 3 mps 686 mmHg 34%
    13:00 +27°C° 0 mm 4 mps 686 mmHg 30%
    14:00 +27°C° 0 mm 4 mps 686 mmHg 28%
    15:00 +28°C° 0 mm 5 mps 686 mmHg 25%
    16:00 +29°C° 0 mm 5 mps 685 mmHg 23%
    17:00 +28°C° 0 mm 5 mps 685 mmHg 24%
    18:00 +27°C° 0 mm 4 mps 685 mmHg 25%
    19:00 +27°C° 0 mm 4 mps 685 mmHg 26%
    20:00 +26°C° 0 mm 3 mps 685 mmHg 30%
    21:00 +25°C° 0 mm 3 mps 685 mmHg 34%
    22:00 +24°C° 0 mm 2 mps 686 mmHg 38%
    23:00 +23°C° 0 mm 2 mps 685 mmHg 45%

    1 June, Monday

    Time Temperature Precipitation Wind Pressure Humidity
    00:00 +21°C° 0 mm 3 mps 685 mmHg 53%
    01:00 +20°C° 0 mm 3 mps 684 mmHg 60%
    02:00 +20°C° 0 mm 3 mps 684 mmHg 63%
    03:00 +19°C° 0 mm 2 mps 684 mmHg 67%
    04:00 +20°C° 0 mm 1 mps 684 mmHg 70%
    05:00 +19°C° 0 mm 2 mps 684 mmHg 67%
    06:00 +20°C° 0 mm 2 mps 684 mmHg 64%
    07:00 +21°C° 0 mm 2 mps 685 mmHg 60%
    08:00 +22°C° 0 mm 3 mps 685 mmHg 54%
    09:00 +25°C° 0 mm 4 mps 685 mmHg 48%
    10:00 +27°C° 0 mm 5 mps 686 mmHg 43%
    11:00 +28°C° 0 mm 5 mps 685 mmHg 40%
    12:00 +29°C° 0 mm 5 mps 685 mmHg 37%
    13:00 +30°C° 0 mm 5 mps 685 mmHg 34%
    14:00 +29°C° 0.5 mm 5 mps 685 mmHg 38%
    15:00 +28°C° 0.5 mm 5 mps 684 mmHg 41%
    16:00 +28°C° 0.5 mm 6 mps 684 mmHg 44%
    17:00 +26°C° 1.6 mm 5 mps 684 mmHg 52%
    18:00 +23°C° 1.6 mm 4 mps 684 mmHg 59%
    19:00 +22°C° 1.6 mm 4 mps 683 mmHg 66%
    20:00 +21°C° 0.3 mm 3 mps 684 mmHg 66%
    21:00 +21°C° 0.3 mm 2 mps 684 mmHg 66%
    22:00 +21°C° 0.3 mm 2 mps 684 mmHg 66%
    23:00 +21°C° 0 mm 2 mps 684 mmHg 67%

    2 June, Tuesday

    Time Temperature Precipitation Wind Pressure Humidity
    00:00 +20°C° 0 mm 2 mps 684 mmHg 68%
    01:00 +19°C° 0 mm 2 mps 683 mmHg 69%
    02:00 +19°C° 0 mm 2 mps 683 mmHg 70%
    03:00 +19°C° 0 mm 1 mps 683 mmHg 71%
    04:00 +19°C° 0 mm 1 mps 683 mmHg 73%
    05:00 +19°C° 0 mm 1 mps 683 mmHg 66%
    06:00 +20°C° 0 mm 1 mps 683 mmHg 60%
    07:00 +18°C° 0 mm 0 mps 683 mmHg 53%
    08:00 +22°C° 0 mm 1 mps 684 mmHg 44%
    09:00 +23°C° 0 mm 1 mps 684 mmHg 35%
    10:00 +25°C° 0 mm 2 mps 685 mmHg 26%
    11:00 +26°C° 0 mm 2 mps 685 mmHg 25%
    12:00 +27°C° 0 mm 3 mps 685 mmHg 24%
    13:00 +28°C° 0 mm 3 mps 685 mmHg 23%
    14:00 +29°C° 0 mm 3 mps 684 mmHg 23%
    15:00 +29°C° 0 mm 3 mps 684 mmHg 23%
    16:00 +30°C° 0 mm 4 mps 684 mmHg 23%
    17:00 +29°C° 0 mm 4 mps 683 mmHg 26%
    18:00 +29°C° 0 mm 4 mps 683 mmHg 29%
    19:00 +28°C° 0 mm 3 mps 683 mmHg 32%
    20:00 +27°C° 0 mm 3 mps 683 mmHg 35%
    21:00 +26°C° 0 mm 3 mps 683 mmHg 38%
    22:00 +25°C° 0 mm 2 mps 683 mmHg 41%
    23:00 +24°C° 0 mm 3 mps 682 mmHg 45%

    3 June, Wednesday

    Time Temperature Precipitation Wind Pressure Humidity
    00:00 +22°C° 0 mm 3 mps 682 mmHg 50%
    01:00 +22°C° 0 mm 3 mps 681 mmHg 54%
    02:00 +21°C° 0 mm 3 mps 681 mmHg 56%
    03:00 +21°C° 0 mm 3 mps 681 mmHg 57%
    04:00 +21°C° 0 mm 3 mps 680 mmHg 59%
    05:00 +21°C° 0 mm 3 mps 681 mmHg 55%
    06:00 +22°C° 0 mm 3 mps 681 mmHg 52%
    07:00 +22°C° 0 mm 4 mps 681 mmHg 48%
    08:00 +25°C° 0 mm 5 mps 682 mmHg 44%
    09:00 +26°C° 0 mm 6 mps 682 mmHg 39%
    10:00 +28°C° 0 mm 7 mps 682 mmHg 35%
    11:00 +29°C° 0 mm 7 mps 682 mmHg 33%
    12:00 +30°C° 0 mm 7 mps 682 mmHg 31%
    13:00 +32°C° 0 mm 7 mps 682 mmHg 29%
    14:00 +32°C° 0 mm 7 mps 682 mmHg 27%
    15:00 +33°C° 0 mm 7 mps 682 mmHg 26%
    16:00 +33°C° 0 mm 7 mps 681 mmHg 24%
    17:00 +32°C° 0 mm 6 mps 681 mmHg 27%
    18:00 +30°C° 0 mm 6 mps 681 mmHg 29%
    19:00 +30°C° 0 mm 6 mps 681 mmHg 31%
    20:00 +29°C° 0 mm 5 mps 681 mmHg 33%
    21:00 +28°C° 0 mm 4 mps 681 mmHg 36%
    22:00 +27°C° 0 mm 3 mps 681 mmHg 38%
    23:00 +26°C° 0.2 mm 3 mps 681 mmHg 43%
    Show more